Lakeland Region, FL

4:12 AM EST on February 22, 2018 (GMT -0500)
Lakeland Linder Regional

Weather History for KLAL - September, 2012

Change the Weather History Date:

Thursday, September 6, 2012

  Actual Average Record
Temperature  
Mean Temperature 78 °F -  
Max Temperature 86 °F 86 °F 95 °F (1996)
Min Temperature 71 °F 72 °F 69 °F (1997)
Cooling Degree Days 14    
Growing Degree Days 28 (Base 50)    
Moisture  
Dew Point 71 °F    
Average Humidity 87    
Maximum Humidity 100    
Minimum Humidity 62    
Precipitation  
Precipitation 0.00 in - - ()
Sea Level Pressure  
Sea Level Pressure 30.00 in    
Wind  
Wind Speed 3 mph (SSE)    
Max Wind Speed 18 mph    
Max Gust Speed -    
Visibility 10 miles    
Events Rain    
Averages and records for this station are not official NWS values.
T = Trace of Precipitation, MM = Missing Value Source: NWS Daily Summary

Daily Weather History Graph

Daily Weather History Graph

Search for Another Location

Airport or City:

Trip Planner

Search our weather history database for the weather conditions in past years. The results will help you decide how hot, cold, wet, or windy it might be!

Date:

Astronomy

Sep. 06, 2012 Rise Set
Actual Time 7:09 AM EDT 7:42 PM EDT
Civil Twilight 6:45 AM EDT 8:06 PM EDT
Nautical Twilight 6:17 AM EDT 8:34 PM EDT
Astronomical Twilight 5:49 AM EDT 9:02 PM EDT
Moon 11:27 PM EDT (9/6) 12:32 PM EDT (9/6)
Length of Visible Light 13h 20m
Length of Day
12h 33m
Waning Gibbous, 67% of the Moon is Illuminated
Sep 6
Waning Gibbous
Sep 8
Last Quarter
Sep 15
New
Sep 22
First Quarter
Sep 29
Full

Hourly Weather History & Observations

Time (EDT) Temp. Heat Index Dew Point Humidity Pressure Visibility Wind Dir Wind Speed Gust Speed Precip Events Conditions
12:15 AM 73.4 °F - 69.8 °F 88% 30.00 in 10.0 mi North - - N/A   Clear
12:35 AM 73.4 °F - 69.8 °F 88% 30.00 in 10.0 mi North - - N/A   Clear
12:55 AM 73.4 °F - 69.8 °F 88% 30.00 in 10.0 mi North - - N/A   Clear
1:15 AM 73.4 °F - 69.8 °F 88% 30.00 in 10.0 mi North - - N/A   Clear
1:35 AM 73.4 °F - 69.8 °F 88% 30.00 in 10.0 mi North - - N/A   Clear
1:55 AM 73.4 °F - 69.8 °F 88% 29.99 in 10.0 mi North - - N/A   Clear
2:15 AM 71.6 °F - 69.8 °F 94% 29.99 in 10.0 mi North - - N/A   Clear
3:35 AM 71.6 °F - 69.8 °F 94% 29.98 in 10.0 mi North - - N/A   Clear
3:55 AM 71.6 °F - 69.8 °F 94% 29.97 in 10.0 mi North - - N/A   Clear
4:35 AM 71.6 °F - 69.8 °F 94% 29.97 in 10.0 mi North - - N/A   Clear
4:55 AM 71.6 °F - 69.8 °F 94% 29.98 in 10.0 mi North - - N/A   Clear
5:15 AM 71.6 °F - 69.8 °F 94% 29.98 in 10.0 mi North - - N/A   Clear
5:35 AM 71.6 °F - 69.8 °F 94% 29.98 in 10.0 mi North - - N/A   Clear
5:50 AM 71.6 °F - 69.8 °F 94% 29.98 in 10.0 mi Calm Calm - N/A   Clear
5:55 AM 71.6 °F - 69.8 °F 94% 30.00 in 10.0 mi North - - N/A   Clear
6:15 AM 71.6 °F - 69.8 °F 94% 30.00 in 10.0 mi North - - N/A   Clear
6:35 AM 71.6 °F - 69.8 °F 94% 30.00 in 10.0 mi North - - N/A   Clear
6:50 AM 71.6 °F - 71.6 °F 100% 30.00 in 10.0 mi Calm Calm - N/A   Clear
7:50 AM 73.4 °F - 71.6 °F 94% 30.02 in 10.0 mi Calm Calm - N/A   Clear
8:54 AM 77.0 °F - 73.4 °F 89% 30.02 in 10.0 mi Calm Calm - N/A   Clear
9:50 AM 80.6 °F 85.4 °F 73.4 °F 79% 30.03 in 10.0 mi South 4.6 mph - N/A   Clear
10:50 AM 86.0 °F 93.4 °F 73.4 °F 66% 30.04 in 12.0 mi South 11.5 mph - N/A   Mostly Cloudy
12:50 PM 86.0 °F 91.8 °F 71.6 °F 62% 30.02 in 12.0 mi SSE 5.8 mph - N/A   Mostly Cloudy
1:22 PM 84.2 °F 88.4 °F 69.8 °F 62% 30.02 in 12.0 mi SW 18.4 mph - N/A   Mostly Cloudy
1:48 PM 73.4 °F - 69.8 °F 88% 30.06 in 2.0 mi South 10.4 mph - N/A Rain Heavy Rain
2:50 PM 73.4 °F - 71.6 °F 94% 30.02 in 7.0 mi NE 3.5 mph - N/A Rain Light Rain
3:50 PM 75.2 °F - 73.4 °F 94% 30.00 in 10.0 mi East 4.6 mph - N/A Rain Light Rain
4:50 PM 78.8 °F - 71.6 °F 78% 29.98 in 10.0 mi Calm Calm - N/A   Mostly Cloudy
5:50 PM 82.4 °F 88.2 °F 73.4 °F 74% 29.96 in 10.0 mi Calm Calm - N/A   Mostly Cloudy
6:50 PM 82.4 °F 87.2 °F 71.6 °F 70% 29.99 in 12.0 mi Calm Calm - N/A   Mostly Cloudy
7:50 PM 78.8 °F - 73.4 °F 83% 30.00 in 12.0 mi Calm Calm - N/A   Mostly Cloudy
8:50 PM 77.0 °F - 71.6 °F 83% 30.01 in 12.0 mi SE 6.9 mph - N/A   Mostly Cloudy
9:50 PM 75.2 °F - 69.8 °F 83% 30.01 in 12.0 mi East 3.5 mph - N/A   Mostly Cloudy
10:55 PM 73.4 °F - 68.0 °F 83% 30.01 in 10.0 mi North - - N/A   Clear
11:15 PM 73.4 °F - 69.8 °F 88% 30.00 in 10.0 mi North - - N/A   Clear
11:35 PM 73.4 °F - 69.8 °F 88% 30.00 in 10.0 mi North - - N/A   Clear
11:55 PM 71.6 °F - 69.8 °F 94% 29.98 in 10.0 mi North - - N/A   Clear